Погода в Усть-Иле

Россия / Забайкальский край     50°24′01″N   113°42′57″E
темп.,
°C
ветер,
м/с
пор.,
м/с
влажн.,
%
обл.,
%
осадки,
мм/ч
давл.,
гПа
погр.,
м
18 июня, пт
пт1800:00+14сз112051100 0.0 9931822
03:00+13сз111855100 0.0 9931686
06:00+11сз101872100 0.2 9931692
09:00+10сз101777100 0.5 9941567
12:00+11сз81279100 0.6 9951244
15:00+12сз81172100 0.7 9951292
18:00+13ссз7106979 0.3 9961236
21:00+11ссз498298 1.4 997269
19 июня, сб
сб1900:00+8зсз2290100 0.6 99926
03:00+10ссз5118650 2.0 998663
06:00+10сз51289100 0.4 999625
09:00+13ссз81376100 0.5 998926
12:00+13ссз71372100 0.1 9991058
15:00+12ссз61384100 0.6 1000940
18:00+12ссз61388100 0.9 1002773
21:00+11ссз3889100 0.9 1003320
20 июня, вс
вс2000:00+9сз339483 0.0 100538
03:00+8ссз229451 0.0 100728
06:00+8ссз239533 0.0 100849
09:00+14ссв457651 0.0 1008801
12:00+17св456288 0.4 10081245
15:00+19св455487 1.3 10081567
18:00+20всв455032 0.0 10071677
21:00+16в22715 0.1 100920
21 июня, пн
пн2100:00+12ссв01835 0.0 101010
03:00+11зсз118632 0.0 101110
06:00+11зюз1188100 0.0 101210
09:00+16юв23687 0.0 1011414
12:00+22ююв44465 0.0 10091568
15:00+24юв4539100 0.0 10072038
18:00+24юв55415 0.0 10061390
21:00+19вюв346019 0.0 100657
22 июня, вт
вт2200:00+15вюв227097 0.0 100811
03:00+14в1176100 0.0 100711
06:00+13в117642 0.0 100711
09:00+19юв235427 0.0 1006387
12:00+27ююз683370 0.0 10032094
15:00+29юз81028100 0.0 10012494
18:00+26ююз7937100 0.0 10011284
21:00+22ююв3849100 0.0 1001232